Starlink 3375

operational
NORAD ID: 51114 Int'l Des: 2022-005 Owner: SPXS Country: US Constellation: starlink
LEOCIRCULAR

关于 Starlink 3375

正在加载描述...

实时位置

正在加载3D地球...

即将过境

高度历史

Altitude vs Time

uPlot chart will show altitude changes over time

两行轨道根数

1 51114U 22005L 25306.26051152 .00000521 00000-0 50820-4 0 9996
2 51114 53.2155 141.1729 0001424 90.2038 269.9118 15.08837205209649
Epoch: Nov 2, 2025 • Age: 44 hours

当前状态

高度 547.3 km
速度 7.59 km/s
星下点 -24.50°S, 102.4°W
发射日期 Jan 19, 2022
运行时间 3.7 years
类型 internet

技术详情

分类 Payload
质量 297.00 kg
干质量 275.00 kg
总质量 297.00 kg
长度 0.20 m
直径 2.80 m
跨度 9.00 m
形状 Box + pan
制造商 SPXS
平台类型 Starlink
阶段状态 In Orbit
所有者/国家 SPXS/US

大型星座

Loading constellations...